Flag for Argentina Weather past 2 weeks in Salta, Salta, Argentina

Now
63 °F

Clear.


Feels Like: 63 °F
Forecast: 57 / 69 °F
Wind: 5 mph from North

Location: Salta Aerodrome

Current Time: Apr 24, 2015 at 11:06:25 PM

Latest Report: Apr 24, 2015 at 10:00 PM


Visibility: 10 mi

Pressure: 30.30 "Hg

Humidity: 88%

Dew point: 59 °F

Location of SaltaLocation

Historic Weather in Salta — Graph

°F

Salta temperature yesterday

Maximum temperature yesterday: 66 °F (at 3:00 PM)
Minimum temperature yesterday: 57 °F (at 2:00 AM)
Average temperature yesterday: 60 °F

Past Weeks' High & Low Weather Summary

 TemperatureHumidityPressure
High82 °F (Apr 14, 3:00 PM)100% (Apr 10, 12:00 AM)30.30 "Hg (Apr 10, 12:00 AM)
Low55 °F (Apr 10, 7:00 AM)40% (Apr 19, 4:00 PM)29.74 "Hg (Apr 19, 3:00 PM)
Average66 °F82%30.09 "Hg
* Reported Apr 9 10:00 PM — Apr 24 10:00 PM, Salta, Weather by CustomWeather, © 2015

Note: Actual official high and low records may vary slightly from our data, if they occured in-between our weather recording intervals... More about our weather records

Advertising

Salta weather history for previous 24 hours

 ConditionsComfort  
Time TempWeatherWind HumidityBarometerVisibility
10:00 PM
Fri, Apr 24
63 °FClear.5 mph88%30.30 "Hg10 mi
8:00 PM64 °FClear.5 mph83%30.24 "Hg10 mi
7:00 PM66 °FOvercast.5 mph78%30.24 "HgN/A
6:00 PM68 °FPartly cloudy.3 mph73%30.21 "HgN/A
5:00 PM70 °FBroken clouds.5 mph64%30.21 "HgN/A
4:00 PM70 °FBroken clouds.2 mph60%30.21 "HgN/A
3:00 PM70 °FBroken clouds.6 mph60%30.21 "HgN/A
2:02 PM70 °FBroken clouds.5 mph64%30.21 "HgN/A
1:00 PM70 °FScattered clouds.No wind64%30.24 "HgN/A
12:00 PM68 °FBroken clouds.No wind73%30.27 "HgN/A
11:00 AM64 °FBroken clouds.No wind78%30.27 "HgN/A
10:00 AM61 °FOvercast.No wind88%30.27 "HgN/A
9:00 AM59 °FMore clouds than sun.2 mph94%30.24 "HgN/A
8:00 AM59 °FMore clouds than sun.2 mph94%30.21 "HgN/A
7:00 AM59 °FMore clouds than sun.No wind94%30.18 "HgN/A
6:00 AM59 °FPartly cloudy.No wind94%30.18 "HgN/A
5:00 AM59 °FPassing clouds.No wind94%30.18 "HgN/A
4:00 AM57 °FPartly cloudy.3 mph100%30.18 "HgN/A
3:00 AM57 °FPassing clouds.2 mph100%30.18 "HgN/A
2:00 AM57 °FPassing clouds.2 mph100%30.18 "HgN/A
1:00 AM57 °FPassing clouds.2 mph100%30.18 "Hg6 mi
12:00 AM57 °FPassing clouds.3 mph100%30.18 "HgN/A
11:00 PM
Thu, Apr 23
59 °FPassing clouds.No wind94%30.18 "HgN/A
Weather by CustomWeather, © 2015

See weather overviewHow to use our weather pages